EW7473 Weather Reports


Display with metric or nautical units.
time (UTC)temp
F
wind
direction
speed
MPH
gust
MPH
rain 1hr
in
rain 24hr
in
rain mn
in
humidity
%
barometer
mb
20210727091008 82 196 0.0 4.0 0.00 0.00 0.00 65 1013.7
20210727090527 83 183 1.0 4.0 0.00 0.00 0.00 64 1013.9
20210727090214 83 213 1.0 3.0 0.00 0.00 0.00 65 1013.7
20210727084526 83 205 0.0 3.0 0.00 0.00 0.00 65 1013.8
20210727084029 83 205 0.0 3.0 0.00 0.00 0.00 64 1013.9
20210727083606 83 205 0.0 2.0 0.00 0.00 0.00 64 1013.7
20210727082009 83 193 0.0 3.0 0.00 0.00 0.00 64 1013.9
20210727081534 83 193 0.0 3.0 0.00 0.00 0.00 64 1014.0
20210727081048 83 179 0.0 3.0 0.00 0.00 0.00 63 1014.0
20210727075512 84 219 1.0 5.0 0.00 0.00 0.00 63 1014.1
20210727075039 84 218 2.0 5.0 0.00 0.00 0.00 63 1014.1
20210727074657 84 189 1.0 4.0 0.00 0.00 0.00 63 1014.2
20210727073019 84 208 1.0 4.0 0.00 0.00 0.00 62 1014.1
20210727072535 84 215 1.0 4.0 0.00 0.00 0.00 62 1014.1
20210727072050 84 179 1.0 4.0 0.00 0.00 0.00 62 1014.1
20210727070529 85 207 0.0 4.0 0.00 0.00 0.00 62 1014.2
20210727070048 85 192 1.0 4.0 0.00 0.00 0.00 62 1014.1
20210727065545 85 180 1.0 6.0 0.00 0.00 0.00 62 1014.1
20210727064017 85 222 1.0 5.0 0.00 0.00 0.00 61 1014.0
20210727063531 85 183 2.0 6.0 0.00 0.00 0.00 60 1014.2
20210727063204 85 180 1.0 7.0 0.00 0.00 0.00 60 1014.1
20210727061517 85 178 1.0 4.0 0.00 0.00 0.00 61 1014.2
20210727061031 85 196 1.0 4.0 0.00 0.00 0.00 61 1014.0
20210727060604 85 188 0.0 5.0 0.00 0.00 0.00 61 1014.1
20210727055024 85 192 0.0 4.0 0.00 0.00 0.00 61 1014.2
20210727054543 86 186 1.0 4.0 0.00 0.00 0.00 61 1014.2
20210727054102 86 203 1.0 4.0 0.00 0.00 0.00 60 1014.2
20210727052521 86 140 1.0 5.0 0.00 0.00 0.00 60 1014.2
20210727052040 86 209 1.0 5.0 0.00 0.00 0.00 60 1014.2
20210727051817 86 115 2.0 5.0 0.00 0.00 0.00 59 1014.2
20210727050014 86 221 1.0 6.0 0.00 0.00 0.00 59 1014.1
20210727045539 86 131 1.0 6.0 0.00 0.00 0.00 59 1014.1
20210727045059 86 215 1.0 6.0 0.00 0.00 0.00 59 1014.1
20210727044006 87 198 1.0 6.0 0.00 0.00 0.00 58 1014.2
20210727043525 87 181 2.0 7.0 0.00 0.00 0.00 58 1014.2
20210727043108 87 153 2.0 7.0 0.00 0.00 0.00 58 1014.2
20210727041513 87 229 2.0 5.0 0.00 0.00 0.00 57 1014.1
20210727041039 87 163 2.0 7.0 0.00 0.00 0.00 56 1014.3
20210727040551 87 134 1.0 4.0 0.00 0.00 0.00 56 1014.3
20210727035030 88 171 1.0 5.0 0.00 0.00 0.00 55 1014.1
20210727034620 88 139 1.0 5.0 0.00 0.00 0.00 55 1014.1
20210727033009 88 173 2.0 5.0 0.00 0.00 0.00 55 1014.0
20210727032523 88 115 1.0 4.0 0.00 0.00 0.00 55 1014.1
20210727032104 88 195 1.0 7.0 0.00 0.00 0.00 55 1014.0
20210727031648 88 134 2.0 7.0 0.00 0.00 0.00 55 1013.7
20210727030507 89 150 1.0 4.0 0.00 0.00 0.00 54 1013.7
20210727030045 89 145 1.0 4.0 0.00 0.00 0.00 53 1013.5
20210727025548 89 128 1.0 5.0 0.00 0.00 0.00 53 1013.4
20210727024019 89 192 1.0 8.0 0.00 0.00 0.00 51 1013.0
20210727023523 90 103 3.0 7.0 0.00 0.00 0.00 51 1012.9
20210727023116 90 205 1.0 7.0 0.00 0.00 0.00 51 1012.8
20210727021514 90 109 2.0 7.0 0.00 0.00 0.00 49 1012.8
20210727021046 90 178 2.0 7.0 0.00 0.00 0.00 49 1012.7
20210727020544 91 204 1.0 5.0 0.00 0.00 0.00 49 1012.6
20210727020200 91 207 1.0 7.0 0.00 0.00 0.00 48 1012.6
20210727015014 91 173 1.0 5.0 0.00 0.00 0.00 47 1012.5
20210727014554 91 97 2.0 6.0 0.00 0.00 0.00 48 1012.5
20210727014047 91 138 1.0 7.0 0.00 0.00 0.00 47 1012.5
20210727012510 92 178 2.0 7.0 0.00 0.00 0.00 45 1012.4
20210727012033 92 208 2.0 7.0 0.00 0.00 0.00 45 1012.3
20210727011611 93 184 3.0 7.0 0.00 0.00 0.00 45 1012.2
20210727010040 93 130 3.0 9.0 0.00 0.00 0.00 44 1012.1
20210727005533 93 198 2.0 6.0 0.00 0.00 0.00 44 1012.1
20210727005044 94 194 2.0 6.0 0.00 0.00 0.00 44 1012.0
20210727004744 94 188 1.0 6.0 0.00 0.00 0.00 43 1012.0
20210727003503 95 205 1.0 6.0 0.00 0.00 0.00 43 1011.8
20210727003041 95 148 1.0 6.0 0.00 0.00 0.00 42 1011.8
20210727002545 95 102 2.0 8.0 0.00 0.00 0.00 42 1011.8
20210727002100 95 163 2.0 8.0 0.00 0.00 0.00 42 1011.8
20210727001015 96 180 2.0 6.0 0.00 0.00 0.00 40 1011.8
20210727000537 97 124 3.0 7.0 0.00 0.00 0.00 39 1011.7
20210727000136 97 138 1.0 7.0 0.00 0.00 0.00 40 1011.8
20210726234517 98 224 2.0 5.0 0.00 0.00 0.00 37 1011.8
20210726234027 98 183 1.0 7.0 0.00 0.00 0.00 38 1011.9
20210726233607 98 107 1.0 9.0 0.00 0.00 0.00 37 1011.9
20210726232007 97 192 3.0 8.0 0.00 0.00 0.00 38 1011.9
20210726231622 97 196 2.0 8.0 0.00 0.00 0.00 37 1011.8
20210726231117 97 195 2.0 11.0 0.00 0.00 0.00 38 1011.8
20210726225519 98 109 1.0 9.0 0.00 0.00 0.00 36 1012.0
20210726225105 98 150 3.0 9.0 0.00 0.00 0.00 36 1011.9
20210726224718 98 121 1.0 6.0 0.00 0.00 0.00 37 1012.0
20210726223507 98 104 3.0 9.0 0.00 0.00 0.00 37 1011.9
20210726223106 99 123 4.0 9.0 0.00 0.00 0.00 34 1012.0
20210726222627 99 193 1.0 8.0 0.00 0.00 0.00 38 1011.9
20210726222057 99 5 1.0 8.0 0.00 0.00 0.00 38 1012.0
20210726221014 99 46 2.0 10.0 0.00 0.00 0.00 36 1012.1
20210726220557 99 109 2.0 10.0 0.00 0.00 0.00 36 1012.1
20210726220113 99 86 4.0 11.0 0.00 0.00 0.00 35 1012.2
20210726214501 100 74 2.0 6.0 0.00 0.00 0.00 36 1012.2
20210726214021 100 117 1.0 5.0 0.00 0.00 0.00 34 1012.3
20210726213534 100 102 1.0 6.0 0.00 0.00 0.00 35 1012.4
20210726213128 101 209 3.0 6.0 0.00 0.00 0.00 29 1012.4
20210726211509 100 203 1.0 5.0 0.00 0.00 0.00 32 1012.4
20210726211034 101 200 1.0 5.0 0.00 0.00 0.00 30 1012.5
20210726210540 101 182 3.0 6.0 0.00 0.00 0.00 31 1012.7
20210726205001 99 360 0.0 6.0 0.00 0.00 0.00 33 1013.0
20210726204116 100 205 3.0 7.0 0.00 0.00 0.00 32 1013.0
20210726202517 100 109 1.0 4.0 0.00 0.00 0.00 33 1013.0
20210726202037 100 192 1.0 5.0 0.00 0.00 0.00 31 1013.1
20210726201630 101 158 2.0 5.0 0.00 0.00 0.00 30 1013.2
20210726200502 100 130 1.0 7.0 0.00 0.00 0.00 32 1013.3
20210726200023 100 168 1.0 7.0 0.00 0.00 0.00 31 1013.4
20210726195550 99 199 1.0 7.0 0.00 0.00 0.00 33 1013.3
20210726195054 100 186 2.0 7.0 0.00 0.00 0.00 33 1013.4
20210726193521 99 146 0.0 4.0 0.00 0.00 0.00 34 1013.5
20210726193100 98 189 1.0 5.0 0.00 0.00 0.00 34 1013.5
20210726192553 99 223 2.0 6.0 0.00 0.00 0.00 33 1013.6
20210726191015 97 196 1.0 5.0 0.00 0.00 0.00 33 1013.6
20210726190530 97 88 1.0 4.0 0.00 0.00 0.00 33 1013.6
20210726190101 98 132 1.0 5.0 0.00 0.00 0.00 33 1013.6
20210726184528 98 197 3.0 6.0 0.00 0.00 0.00 31 1013.7
20210726184039 97 225 2.0 7.0 0.00 0.00 0.00 37 1013.7
20210726183548 97 205 2.0 7.0 0.00 0.00 0.00 36 1013.7
20210726182009 97 174 2.0 6.0 0.00 0.00 0.00 37 1013.7
20210726181548 97 140 3.0 6.0 0.00 0.00 0.00 39 1013.7
20210726181046 97 194 1.0 9.0 0.00 0.00 0.00 41 1013.8
20210726175503 96 120 2.0 7.0 0.00 0.00 0.00 39 1013.9
20210726175022 96 101 1.0 7.0 0.00 0.00 0.00 42 1013.9
20210726174616 95 182 3.0 7.0 0.00 0.00 0.00 42 1013.9
20210726174054 96 214 2.0 6.0 0.00 0.00 0.00 41 1013.9
20210726172519 95 215 1.0 6.0 0.00 0.00 0.00 42 1014.2
20210726172032 95 138 2.0 7.0 0.00 0.00 0.00 42 1014.2
20210726171621 94 175 3.0 7.0 0.00 0.00 0.00 44 1014.3
20210726170008 93 170 3.0 8.0 0.00 0.00 0.00 45 1014.3
20210726165523 93 130 4.0 8.0 0.00 0.00 0.00 46 1014.3
20210726165040 93 206 2.0 5.0 0.00 0.00 0.00 47 1014.4
20210726164723 93 178 2.0 5.0 0.00 0.00 0.00 45 1014.4
20210726163041 92 211 2.0 6.0 0.00 0.00 0.00 47 1014.3
20210726162535 92 256 2.0 4.0 0.00 0.00 0.00 45 1014.2
20210726162054 92 231 1.0 3.0 0.00 0.00 0.00 45 1014.3
20210726160509 92 194 1.0 3.0 0.00 0.00 0.00 46 1014.2
20210726160049 91 205 1.0 3.0 0.00 0.00 0.00 48 1014.3
20210726155549 91 125 0.0 3.0 0.00 0.00 0.00 49 1014.3
20210726154020 88 301 0.0 3.0 0.00 0.00 0.00 52 1014.6
20210726153528 89 147 0.0 3.0 0.00 0.00 0.00 54 1014.6
20210726153100 88 147 1.0 3.0 0.00 0.00 0.00 53 1014.7
20210726151513 87 196 0.0 3.0 0.00 0.00 0.00 55 1014.8
20210726151027 87 201 1.0 3.0 0.00 0.00 0.00 57 1014.9
20210726150537 87 191 0.0 3.0 0.00 0.00 0.00 56 1014.9
20210726150153 87 188 1.0 3.0 0.00 0.00 0.00 57 1015.0
20210726144529 85 217 0.0 3.0 0.00 0.00 0.00 61 1015.1
20210726144034 85 217 0.0 3.0 0.00 0.00 0.00 62 1014.9
20210726143609 85 217 1.0 3.0 0.00 0.00 0.00 61 1015.0
20210726142019 84 229 0.0 4.0 0.00 0.00 0.00 64 1015.0
20210726141652 84 277 1.0 4.0 0.00 0.00 0.00 63 1014.9
20210726141048 84 200 0.0 5.0 0.00 0.00 0.00 63 1014.8
20210726140601 84 174 1.0 5.0 0.00 0.00 0.00 63 1014.9
20210726135022 84 222 1.0 4.0 0.00 0.00 0.00 65 1014.8
20210726134617 83 196 1.0 6.0 0.00 0.00 0.00 65 1014.7
20210726133026 82 202 0.0 5.0 0.00 0.00 0.00 68 1014.6
20210726132533 82 215 1.0 5.0 0.00 0.00 0.00 68 1014.6
20210726132047 82 209 1.0 4.0 0.00 0.00 0.00 69 1014.6
20210726131640 81 174 1.0 3.0 0.00 0.00 0.00 69 1014.4
20210726130051 80 132 0.0 2.0 0.00 0.00 0.00 73 1014.4
20210726125555 80 132 0.0 2.0 0.00 0.00 0.00 73 1014.3
20210726125056 79 90 0.0 2.0 0.00 0.00 0.00 74 1014.3
20210726124002 79 90 0.0 2.0 0.00 0.00 0.00 76 1014.2
20210726123535 78 90 0.0 1.0 0.00 0.00 0.00 76 1014.1
20210726123101 78 90 0.0 0.0 0.00 0.00 0.00 77 1014.0
20210726122601 78 90 0.0 1.0 0.00 0.00 0.00 77 1014.1
20210726121503 77 90 0.0 2.0 0.00 0.00 0.00 78 1014.2
20210726121025 77 178 0.0 1.0 0.00 0.00 0.00 78 1014.2
20210726120536 77 178 0.0 1.0 0.00 0.00 0.00 78 1014.1
20210726120211 77 178 0.0 1.0 0.00 0.00 0.00 78 1014.1
20210726114519 77 178 0.0 0.0 0.00 0.00 0.00 77 1013.9
20210726114038 77 178 0.0 1.0 0.00 0.00 0.00 77 1013.9
20210726113556 77 178 0.0 1.0 0.00 0.00 0.00 77 1013.7
20210726112022 78 178 0.0 1.0 0.00 0.00 0.00 75 1013.7
20210726111610 78 178 0.0 1.0 0.00 0.00 0.00 75 1013.5
20210726111100 78 178 0.0 1.0 0.00 0.00 0.00 74 1013.6
20210726110014 78 178 0.0 1.0 0.00 0.00 0.00 74 1013.6
20210726105523 78 178 0.0 2.0 0.00 0.00 0.00 74 1013.4
20210726105039 78 178 0.0 2.0 0.00 0.00 0.00 73 1013.4
20210726104638 78 178 0.0 1.0 0.00 0.00 0.00 74 1013.3
20210726104054 78 178 0.0 2.0 0.00 0.00 0.00 74 1013.3
20210726103216 78 197 0.0 1.0 0.00 0.00 0.00 74 1013.0
20210726102551 78 197 0.0 0.0 0.00 0.00 0.00 74 1013.2
20210726102051 78 197 0.0 1.0 0.00 0.00 0.00 74 1013.3
20210726101735 79 197 0.0 1.0 0.00 0.00 0.00 72 1013.1
20210726101054 79 197 0.0 1.0 0.00 0.00 0.00 72 1013.1
20210726100549 79 197 0.0 1.0 0.00 0.00 0.00 72 1013.1
20210726100140 79 197 0.0 2.0 0.00 0.00 0.00 71 1012.8
20210726095549 79 197 0.0 4.0 0.00 0.00 0.00 71 1013.0
20210726095119 79 197 0.0 4.0 0.00 0.00 0.00 71 1012.7
20210726094620 80 205 1.0 3.0 0.00 0.00 0.00 70 1012.5
20210726094115 80 199 1.0 3.0 0.00 0.00 0.00 70 1012.8
20210726093604 79 163 0.0 3.0 0.00 0.00 0.00 71 1012.9
20210726093131 79 195 1.0 3.0 0.00 0.00 0.00 71 1012.8
20210726092606 80 268 0.0 2.0 0.00 0.00 0.00 71 1013.0
20210726092045 80 268 0.0 2.0 0.00 0.00 0.00 71 1013.2
20210726091637 80 267 0.0 2.0 0.00 0.00 0.00 70 1013.1